Weather History for KT65 - January, 2012

Change the Weather History Date:

Wednesday, January 4, 2012

  Actual Average (KMFE) Record (KMFE)
Temperature  
Mean Temperature 64 °F 60 °F  
Max Temperature 77 °F 70 °F 94 °F (1997)
Min Temperature 50 °F 50 °F 25 °F (1916)
Degree Days  
Heating Degree Days 2 7  
Month to date heating degree days 28  
Since 1 July heating degree days 265  
Cooling Degree Days 0 2  
Month to date cooling degree days 8  
Year to date cooling degree days 8  
Growing Degree Days 14 (Base 50)    
Moisture  
Dew Point 51 °F    
Average Humidity 72    
Maximum Humidity 100    
Minimum Humidity 41    
Precipitation  
Precipitation 0.00 in 0.03 in 0.98 in (1970)
Month to date precipitation 0.12  
Year to date precipitation 0.12  
Sea Level Pressure  
Sea Level Pressure 30.22 in    
Wind  
Wind Speed 8 mph (SSE)    
Max Wind Speed 23 mph    
Max Gust Speed 29 mph    
Visibility 10 miles    
Events      
T = Trace of Precipitation, MM = Missing Value Source: NWS Daily Summary

Daily Weather History Graph

Daily Weather History Graph

Search for Another Location

Airport or City:

Trip Planner

Search our weather history database for the weather conditions in past years. The results will help you decide how hot, cold, wet, or windy it might be!

Date:

Astronomy

Jan. 04, 2012 Rise Set
Actual Time 7:20 AM CST 5:53 PM CST
Civil Twilight 6:54 AM CST 6:18 PM CST
Nautical Twilight 6:26 AM CST 6:47 PM CST
Astronomical Twilight 5:58 AM CST 7:15 PM CST
Moon 2:14 PM CST (1/4) 3:14 AM CST (1/4)
Length of Visible Light 11h 23m
Length of Day
10h 33m
Waxing Gibbous, 81% of the Moon is Illuminated
Jan 4
Waxing Gibbous
Jan 9
Full
Jan 16
Last Quarter
Jan 23
New
Jan 30
First Quarter

Hourly Weather History & Observations

Time (CST) Temp. Dew Point Humidity Pressure Visibility Wind Dir Wind Speed Gust Speed Precip Events Conditions
12:15 AM 50.0 °F 46.4 °F 87% 30.32 in 10.0 mi SSE 6.9 mph - N/A   Clear
12:35 AM 51.8 °F 46.4 °F 82% 30.31 in 10.0 mi SSE 4.6 mph - N/A   Clear
12:55 AM 51.8 °F 46.4 °F 82% 30.30 in 10.0 mi SSE 5.8 mph - N/A   Clear
1:15 AM 50.0 °F 46.4 °F 87% 30.29 in 10.0 mi SSE 5.8 mph - N/A   Clear
1:35 AM 50.0 °F 46.4 °F 87% 30.29 in 10.0 mi South 3.5 mph - N/A   Clear
1:55 AM 50.0 °F 46.4 °F 87% 30.28 in 10.0 mi South 4.6 mph - N/A   Clear
2:15 AM 50.0 °F 46.4 °F 87% 30.26 in 10.0 mi South 4.6 mph - N/A   Clear
2:35 AM 50.0 °F 46.4 °F 87% 30.26 in 10.0 mi South 5.8 mph - N/A   Clear
2:55 AM 50.0 °F 46.4 °F 87% 30.25 in 10.0 mi South 4.6 mph - N/A   Clear
3:15 AM 50.0 °F 46.4 °F 87% 30.24 in 10.0 mi South 4.6 mph - N/A   Clear
3:35 AM 50.0 °F 46.4 °F 87% 30.23 in 10.0 mi South 4.6 mph - N/A   Clear
3:55 AM 50.0 °F 48.2 °F 94% 30.22 in 10.0 mi South 5.8 mph - N/A   Clear
4:15 AM 50.0 °F 50.0 °F 100% 30.22 in 10.0 mi South 5.8 mph - N/A   Clear
4:35 AM 50.0 °F 48.2 °F 94% 30.22 in 10.0 mi South 3.5 mph - N/A   Clear
5:15 AM 50.0 °F 48.2 °F 94% 30.21 in 10.0 mi South 5.8 mph - N/A   Clear
5:35 AM 50.0 °F 48.2 °F 94% 30.21 in 10.0 mi South 8.1 mph - N/A   Clear
5:55 AM 50.0 °F 48.2 °F 94% 30.21 in 10.0 mi Calm Calm - N/A   Clear
6:15 AM 50.0 °F 48.2 °F 94% 30.22 in 10.0 mi SSE 4.6 mph - N/A   Clear
6:35 AM 50.0 °F 46.4 °F 87% 30.22 in 10.0 mi SSE 5.8 mph - N/A   Clear
6:55 AM 50.0 °F 46.4 °F 87% 30.22 in 10.0 mi SSE 4.6 mph - N/A   Clear
7:15 AM 50.0 °F 46.4 °F 87% 30.23 in 10.0 mi SSE 4.6 mph - N/A   Clear
7:35 AM 50.0 °F 46.4 °F 87% 30.23 in 10.0 mi SSE 4.6 mph - N/A   Clear
7:55 AM 51.8 °F 48.2 °F 88% 30.24 in 10.0 mi SSE 4.6 mph - N/A   Clear
8:15 AM 53.6 °F 50.0 °F 88% 30.24 in 10.0 mi SSE 5.8 mph - N/A   Clear
8:35 AM 55.4 °F 50.0 °F 82% 30.24 in 10.0 mi SSE 6.9 mph - N/A   Clear
8:55 AM 57.2 °F 50.0 °F 77% 30.24 in 10.0 mi South 8.1 mph - N/A   Clear
9:15 AM 60.8 °F 51.8 °F 72% 30.25 in 10.0 mi South 9.2 mph - N/A   Clear
9:35 AM 64.4 °F 51.8 °F 64% 30.25 in 10.0 mi South 18.4 mph 23.0 mph N/A   Clear
9:55 AM 64.4 °F 51.8 °F 64% 30.26 in 10.0 mi South 17.3 mph 26.5 mph N/A   Clear
10:15 AM 68.0 °F 53.6 °F 60% 30.26 in 10.0 mi South 16.1 mph 24.2 mph N/A   Clear
10:35 AM 69.8 °F 53.6 °F 56% 30.26 in 10.0 mi South 18.4 mph 26.5 mph N/A   Clear
10:55 AM 71.6 °F 53.6 °F 53% 30.25 in 7.0 mi South 17.3 mph 21.9 mph N/A   Clear
11:15 AM 71.6 °F 53.6 °F 53% 30.24 in 10.0 mi South 19.6 mph 27.6 mph N/A   Clear
11:35 AM 71.6 °F 53.6 °F 53% 30.23 in 10.0 mi SSE 23.0 mph 27.6 mph N/A   Clear
11:55 AM 73.4 °F 51.8 °F 47% 30.22 in 10.0 mi South 20.7 mph 27.6 mph N/A   Clear
12:15 PM 75.2 °F 51.8 °F 44% 30.21 in 10.0 mi South 20.7 mph 26.5 mph N/A   Clear
12:35 PM 77.0 °F 51.8 °F 41% 30.19 in 10.0 mi South 17.3 mph 28.8 mph N/A   Clear
1:15 PM 77.0 °F 53.6 °F 44% 30.16 in 5.0 mi South 17.3 mph 24.2 mph N/A   Haze
1:35 PM 77.0 °F 53.6 °F 44% 30.16 in 10.0 mi SE 17.3 mph 26.5 mph N/A   Clear
1:55 PM 77.0 °F 53.6 °F 44% 30.16 in 10.0 mi SSE 15.0 mph 23.0 mph N/A   Clear
2:15 PM 77.0 °F 53.6 °F 44% 30.15 in 10.0 mi SSE 18.4 mph 24.2 mph N/A   Clear
3:15 PM 73.4 °F 51.8 °F 47% 30.15 in 10.0 mi SSE 15.0 mph 21.9 mph N/A   Clear
3:35 PM 75.2 °F 51.8 °F 44% 30.16 in 10.0 mi South 17.3 mph 24.2 mph N/A   Clear
3:55 PM 73.4 °F 51.8 °F 47% 30.16 in 10.0 mi SSE 18.4 mph 23.0 mph N/A   Clear
4:15 PM 73.4 °F 53.6 °F 50% 30.16 in 10.0 mi South 16.1 mph 25.3 mph N/A   Clear
4:35 PM 71.6 °F 53.6 °F 53% 30.17 in 10.0 mi SSE 17.3 mph 24.2 mph N/A   Clear
4:55 PM 71.6 °F 53.6 °F 53% 30.17 in 10.0 mi SSE 17.3 mph 20.7 mph N/A   Clear
5:15 PM 71.6 °F 55.4 °F 57% 30.18 in 10.0 mi SSE 13.8 mph 19.6 mph N/A   Clear
5:35 PM 69.8 °F 55.4 °F 60% 30.18 in 10.0 mi SSE 12.7 mph 19.6 mph N/A   Clear
5:55 PM 68.0 °F 55.4 °F 64% 30.19 in 10.0 mi SSE 11.5 mph 17.3 mph N/A   Clear
6:15 PM 68.0 °F 55.4 °F 64% 30.19 in 10.0 mi SSE 12.7 mph - N/A   Clear
6:35 PM 68.0 °F 57.2 °F 68% 30.20 in 10.0 mi SSE 9.2 mph - N/A   Clear
7:15 PM 66.2 °F 57.2 °F 73% 30.20 in 10.0 mi SSE 6.9 mph - N/A   Clear
7:35 PM 64.4 °F 59.0 °F 83% 30.21 in 10.0 mi SSE 8.1 mph - N/A   Clear
7:55 PM 64.4 °F 59.0 °F 83% 30.21 in 10.0 mi SSE 5.8 mph - N/A   Clear
8:15 PM 64.4 °F 59.0 °F 83% 30.22 in 10.0 mi SSE 5.8 mph - N/A   Clear
8:35 PM 64.4 °F 59.0 °F 83% 30.22 in 10.0 mi SSE 4.6 mph - N/A   Clear
8:55 PM 62.6 °F 59.0 °F 88% 30.24 in 10.0 mi Calm Calm - N/A   Clear
9:15 PM 62.6 °F 57.2 °F 82% 30.24 in 10.0 mi South 3.5 mph - N/A   Clear
9:35 PM 62.6 °F 59.0 °F 88% 30.24 in 10.0 mi South 3.5 mph - N/A   Clear
9:55 PM 62.6 °F 59.0 °F 88% 30.24 in 10.0 mi SSE 4.6 mph - N/A   Clear
10:15 PM 62.6 °F 59.0 °F 88% 30.24 in 10.0 mi SSE 3.5 mph - N/A   Clear
10:35 PM 62.6 °F 59.0 °F 88% 30.24 in 10.0 mi SE 3.5 mph - N/A   Clear
10:55 PM 62.6 °F 57.2 °F 82% 30.24 in 10.0 mi Calm Calm - N/A   Clear
11:15 PM 60.8 °F 57.2 °F 88% 30.25 in 10.0 mi Calm Calm - N/A   Clear
11:35 PM 60.8 °F 57.2 °F 88% 30.25 in 10.0 mi Calm Calm - N/A   Clear
11:55 PM 57.2 °F 55.4 °F 94% 30.25 in 10.0 mi NNW 3.5 mph - N/A   Clear